[[{"header":{"parameterUnit":"m.s-1","parameterCategory":1,"la1":30.2991,"la2":30.254,"lo1":-89.0895,"lo2":-89.0444,"dy":0.0017,"dx":0.0017,"nx":28,"ny":28,"refTime":"2024-02-22T03:00:00:Z","depth":0,"parameterNumber":2,"parameterNumberName":"U-component_of_WINDS"},"data":[0,0,0,0,0,0,0,0,0,0,0,0,0,0,0,0,0,0,0,0,0,0,0,0,0,0,0,0,0,0,0,0,0,0,0,0,0,0,0,0,0,0,0,0,0,0,0,0,0,0,0,0,0,0,0,0,0,0,4.1266,4.1266,0,4.1345,4.1346,4.1347,4.1304,4.1302,4.13,4.1298,4.1382,4.1386,4.139,0,0,0,0,0,0,0,0,0,0,0,0,0,4.1081,4.1085,4.1265,4.1266,4.1267,4.1345,4.1346,4.1347,4.1305,4.1302,4.13,4.1297,4.138,4.1385,4.1391,0,0,0,0,0,0,0,0,0,0,0,0,0,4.1161,4.1086,4.1265,4.1256,4.1256,4.1345,4.1346,4.1347,4.1305,4.1302,4.1299,4.1296,4.1379,4.1385,4.1391,4.1495,0,0,4.1411,4.1413,0,0,0,0,0,0,0,0,4.1157,4.1168,4.1256,4.1256,4.1256,4.1311,4.1312,4.1397,4.1306,4.1287,4.1298,4.1294,4.1361,4.1369,4.1391,4.1499,4.1503,4.1411,4.1415,4.1418,4.142,0,0,0,0,0,0,0,4.1151,4.1164,4.1297,4.1257,4.1258,4.1249,4.1256,4.1328,4.1341,4.1288,4.1285,4.1295,4.1361,4.1385,4.1393,4.1504,4.1411,4.1417,4.1421,4.1423,4.1705,4.1709,0,0,0,0,0,0,4.1146,4.116,4.1294,4.1299,4.1197,4.1255,4.1263,4.1297,4.134,4.1344,4.1298,4.1293,4.1376,4.1385,4.1395,4.1522,4.1418,4.1424,4.1427,4.1702,4.1706,4.171,0,0,0,0,0,0,4.1142,4.1158,4.1291,4.1229,4.1245,4.1261,4.13,4.13,4.1324,4.1347,4.135,4.132,4.1373,4.1386,4.1471,4.1525,4.1427,4.1432,4.1697,4.1703,4.1708,4.1776,0,0,0,0,0,0,4.1137,4.1157,4.1195,4.123,4.1249,4.1365,4.1303,4.1304,4.1335,4.133,4.1369,4.1372,4.1372,4.1462,4.1478,4.1532,4.1437,4.1693,4.17,4.1706,4.1769,4.1783,4.1795,0,0,0,0,0,4.113,4.1211,4.1197,4.1214,4.1297,4.1368,4.1379,4.1376,4.134,4.138,4.1395,4.1371,4.1516,4.1471,4.1488,4.1545,4.1689,4.1698,4.1706,4.1763,4.178,4.1795,0,0,0,0,0,0,4.1182,4.1215,4.1201,4.1295,4.1329,4.1361,4.141,4.1394,4.1439,4.1432,4.1428,4.1437,4.1526,4.1544,4.1493,4.165,4.1597,4.1609,4.1635,4.1652,4.1664,4.1659,4.1443,0,0,0,0,0,4.1205,4.1258,4.1285,4.1365,4.1383,4.1394,4.1425,4.142,4.1456,4.147,4.1491,4.1527,4.1582,4.1617,4.1668,4.1771,4.1781,4.1819,4.1832,4.1842,4.1854,4.1913,4.1931,4.1737,4.1737,4.1737,0,0,4.1251,4.1276,4.131,4.1377,4.1402,4.146,4.1407,4.1469,4.1512,4.148,4.1562,4.1579,4.1619,4.1715,4.1758,4.1732,4.1909,4.1853,4.1861,4.1867,4.1923,4.1942,4.1958,4.1743,4.1742,4.1741,0,0,4.1367,4.139,4.1461,4.1488,4.1528,4.1536,4.1553,4.1588,4.1598,4.168,4.1658,4.171,4.1802,4.1833,4.1861,4.1991,4.1972,4.2007,4.2076,4.2134,4.2149,4.2163,4.2212,4.223,4.2018,4.2018,4.2018,0,4.142,4.1505,4.15,4.1565,4.1596,4.1569,4.1643,4.167,4.1725,4.1748,4.1718,4.1835,4.186,4.1964,4.1996,4.2019,4.204,4.2003,4.2147,4.2161,4.2174,4.2221,4.2239,4.2022,4.2022,4.2021,4.2021,0,4.1571,4.163,4.1683,4.1737,4.1774,4.1843,4.185,4.1888,4.1881,4.1892,4.1978,4.2007,4.2065,4.2089,4.2082,4.2193,4.2176,4.2147,4.2095,4.2196,4.2241,4.2258,4.2028,4.2027,4.2026,4.2025,0,0,4.1721,4.1772,4.1792,4.1818,4.1861,4.1908,4.1977,4.2033,4.2067,4.2106,4.2166,4.2246,4.222,4.2252,4.2248,4.2299,4.2404,4.2264,4.2265,4.2291,4.2532,4.2555,4.2576,4.2391,4.2394,4.2397,4.2529,0,4.1841,4.1961,4.196,4.2072,4.2128,4.2105,4.2165,4.2199,4.2212,4.2263,4.2277,4.2335,4.2295,4.2315,4.2363,4.2381,4.2453,4.2371,4.2449,4.2452,4.2442,4.2599,4.2623,4.2746,4.2546,4.2549,4.2551,0,4.1997,4.2043,4.216,4.2198,4.2222,4.2276,4.2329,4.2378,4.2417,4.2423,4.246,4.2449,4.2522,4.2466,4.2567,4.2512,4.2544,4.2558,4.2562,4.2571,4.2509,4.2614,4.2785,4.2805,4.2578,4.2576,4.2574,0,4.2099,4.2189,4.2272,4.2294,4.2339,4.2379,4.24,4.2435,4.2471,4.2517,4.254,4.2595,4.2626,4.2669,4.2674,4.2633,4.2778,4.2722,4.2787,4.2787,4.282,4.2818,4.3001,4.2837,4.2836,4.2836,4.2836,0,4.2235,4.2308,4.2318,4.237,4.2452,4.2451,4.2533,4.2551,4.2584,4.2639,4.2622,4.2675,4.2678,4.2733,4.2737,4.2823,4.2836,4.2844,4.2845,4.2847,4.2847,4.2869,4.2862,4.2841,4.284,4.2839,4.2838,0,4.2362,4.2371,4.2461,4.2497,4.2508,4.2568,4.2599,4.2649,4.2661,4.2732,4.2748,4.2767,4.2831,4.284,4.2915,4.2919,4.3022,4.3012,4.3009,4.3008,4.3074,4.3069,4.328,4.3309,4.3123,4.3125,4.3126,0,4.2449,4.2506,4.2548,4.2584,4.2608,4.2665,4.2701,4.2702,4.2741,4.2792,4.2837,4.2899,4.2949,4.3053,4.3074,4.3132,4.3126,4.3196,4.3134,4.3136,4.313,4.3128,4.3135,4.3208,4.321,4.3212,4.3213,0,4.2604,4.2607,4.2658,4.2714,4.2757,4.28,4.2841,4.2872,4.2878,4.2923,4.2988,4.3027,4.3105,4.3168,4.3226,4.3249,4.3234,4.3232,4.3251,4.3255,4.3251,4.3257,4.3044,4.3228,4.3226,4.3225,4.3224,4.3224,4.2716,4.2766,4.2805,4.2865,4.2895,4.2935,4.2984,4.3002,4.3057,4.312,4.3117,4.319,4.3231,4.3307,4.3334,4.3393,4.337,4.3396,4.3403,4.3411,4.3419,4.324,4.3403,4.3403,4.3402,4.3402,4.3402,0,4.2873,4.2896,4.2951,4.3009,4.3057,4.3037,4.3082,4.3124,4.3188,4.3226,4.3277,4.3354,4.3415,4.3442,4.3503,4.3545,4.354,4.3561,4.3559,4.3566,4.3434,4.3413,4.3565,4.3565,4.3565,4.3565,4.3565,4.3565,4.296,4.3045,4.3052,4.3153,4.3177,4.3248,4.3276,4.3313,4.3344,4.3431,4.3482,4.3498,4.3533,4.3597,4.3654,4.3661,4.3685,4.3711,4.3714,4.3591,4.3575,4.3559,4.3539,4.3716,4.3716,4.3842,4.3843,4.3844]},{"header":{"parameterUnit":"m.s-1","parameterCategory":1,"la1":30.2991,"la2":30.254,"lo1":-89.0895,"lo2":-89.0444,"dy":0.0017,"dx":0.0017,"nx":28,"ny":28,"refTime":"2024-02-22T03:00:00:Z","depth":0,"parameterNumber":3,"parameterNumberName":"V-component_of_WINDS"},"data":[0,0,0,0,0,0,0,0,0,0,0,0,0,0,0,0,0,0,0,0,0,0,0,0,0,0,0,0,0,0,0,0,0,0,0,0,0,0,0,0,0,0,0,0,0,0,0,0,0,0,0,0,0,0,0,0,0,0,-0.4937,-0.4937,0,-0.4954,-0.4954,-0.4954,-0.4961,-0.4961,-0.4961,-0.4961,-0.4978,-0.4979,-0.4979,0,0,0,0,0,0,0,0,0,0,0,0,0,-0.4911,-0.4911,-0.4937,-0.4937,-0.4937,-0.4954,-0.4954,-0.4954,-0.4961,-0.4961,-0.4961,-0.4961,-0.4978,-0.4979,-0.4979,0,0,0,0,0,0,0,0,0,0,0,0,0,-0.4924,-0.4911,-0.4937,-0.4942,-0.4943,-0.4954,-0.4954,-0.4954,-0.4961,-0.4961,-0.4961,-0.4961,-0.4978,-0.4979,-0.498,-0.4985,0,0,-0.4982,-0.4982,0,0,0,0,0,0,0,0,-0.4924,-0.4925,-0.4941,-0.4942,-0.4943,-0.4955,-0.4951,-0.4965,-0.4961,-0.4954,-0.4961,-0.4961,-0.4971,-0.4972,-0.4975,-0.4986,-0.4987,-0.4982,-0.4982,-0.4983,-0.4983,0,0,0,0,0,0,0,-0.4923,-0.4925,-0.4943,-0.4942,-0.4943,-0.4945,-0.4946,-0.4954,-0.4963,-0.4955,-0.4955,-0.4957,-0.4971,-0.4975,-0.4976,-0.4987,-0.4982,-0.4983,-0.4983,-0.4983,-0.5004,-0.5004,0,0,0,0,0,0,-0.4921,-0.4924,-0.4943,-0.4944,-0.4933,-0.4945,-0.4947,-0.4951,-0.4963,-0.4964,-0.4957,-0.4957,-0.4973,-0.4975,-0.4976,-0.4985,-0.4983,-0.4983,-0.4984,-0.5004,-0.5004,-0.5004,0,0,0,0,0,0,-0.492,-0.4922,-0.4942,-0.4934,-0.4937,-0.4946,-0.495,-0.4952,-0.4955,-0.4964,-0.4966,-0.4959,-0.4973,-0.4975,-0.4983,-0.4985,-0.4984,-0.4984,-0.5004,-0.5004,-0.5004,-0.5,0,0,0,0,0,0,-0.4919,-0.4922,-0.4924,-0.4934,-0.4937,-0.4948,-0.495,-0.4952,-0.4956,-0.4957,-0.4967,-0.4968,-0.4973,-0.4982,-0.4984,-0.4986,-0.4985,-0.5004,-0.5004,-0.5004,-0.5,-0.5,-0.5,0,0,0,0,0,-0.4918,-0.4922,-0.4924,-0.4927,-0.494,-0.4948,-0.495,-0.4956,-0.4956,-0.4959,-0.4965,-0.4968,-0.4985,-0.4983,-0.4985,-0.4988,-0.5004,-0.5004,-0.5004,-0.5,-0.5,-0.5,0,0,0,0,0,0,-0.4913,-0.4924,-0.4926,-0.4933,-0.494,-0.495,-0.4953,-0.4956,-0.4963,-0.4963,-0.497,-0.4972,-0.4979,-0.4984,-0.4982,-0.4994,-0.4995,-0.4995,-0.4991,-0.4991,-0.4991,-0.499,-0.4986,0,0,0,0,0,-0.4912,-0.4918,-0.4927,-0.4933,-0.4936,-0.4944,-0.4948,-0.4952,-0.4959,-0.4962,-0.4968,-0.4976,-0.4982,-0.4987,-0.4994,-0.5001,-0.5004,-0.5004,-0.5004,-0.5004,-0.5004,-0.5009,-0.501,-0.5005,-0.5005,-0.5005,0,0,-0.4911,-0.4918,-0.4921,-0.4932,-0.4937,-0.4944,-0.4946,-0.4952,-0.4957,-0.4963,-0.4971,-0.4976,-0.4984,-0.4992,-0.4996,-0.4996,-0.5006,-0.5004,-0.5004,-0.5005,-0.501,-0.501,-0.501,-0.5005,-0.5005,-0.5005,0,0,-0.4913,-0.4918,-0.4924,-0.4929,-0.4938,-0.4943,-0.4944,-0.4954,-0.4957,-0.4965,-0.497,-0.4976,-0.4987,-0.4993,-0.4998,-0.5002,-0.5005,-0.5004,-0.5004,-0.5009,-0.5009,-0.501,-0.5012,-0.5012,-0.5005,-0.5005,-0.5005,0,-0.4911,-0.492,-0.4926,-0.4932,-0.4937,-0.4942,-0.4948,-0.4953,-0.4964,-0.4967,-0.4967,-0.4982,-0.4988,-0.4998,-0.4999,-0.5002,-0.5004,-0.5003,-0.5009,-0.5009,-0.501,-0.5012,-0.5012,-0.5005,-0.5005,-0.5005,-0.5005,0,-0.4917,-0.4923,-0.4927,-0.4937,-0.4942,-0.4948,-0.4955,-0.4959,-0.4963,-0.4968,-0.4977,-0.4984,-0.4993,-0.4995,-0.4999,-0.5006,-0.5006,-0.5007,-0.5008,-0.501,-0.5012,-0.5013,-0.5004,-0.5004,-0.5004,-0.5004,0,0,-0.4915,-0.4929,-0.493,-0.4935,-0.4945,-0.495,-0.4956,-0.4965,-0.4969,-0.4976,-0.4982,-0.4991,-0.4993,-0.4998,-0.5003,-0.5007,-0.501,-0.5008,-0.5008,-0.5009,-0.5019,-0.5018,-0.5019,-0.5012,-0.5013,-0.5013,-0.5018,0,-0.4918,-0.493,-0.4936,-0.4945,-0.4951,-0.4957,-0.4962,-0.4969,-0.4974,-0.4981,-0.4987,-0.4994,-0.4995,-0.4998,-0.5003,-0.5009,-0.5013,-0.5009,-0.5018,-0.5019,-0.5016,-0.502,-0.5018,-0.5023,-0.5019,-0.5019,-0.5019,0,-0.4924,-0.4931,-0.494,-0.495,-0.4953,-0.4958,-0.4966,-0.4972,-0.498,-0.4984,-0.499,-0.4994,-0.5002,-0.5002,-0.5012,-0.501,-0.5014,-0.5018,-0.5018,-0.5019,-0.5019,-0.5021,-0.5025,-0.5026,-0.5021,-0.502,-0.502,0,-0.4922,-0.4934,-0.4941,-0.4945,-0.4956,-0.496,-0.4965,-0.4973,-0.4978,-0.4985,-0.4989,-0.4997,-0.5002,-0.5008,-0.5015,-0.5014,-0.5025,-0.5026,-0.5029,-0.5029,-0.5031,-0.5031,-0.5036,-0.5033,-0.5033,-0.5033,-0.5033,0,-0.4925,-0.4931,-0.4941,-0.4945,-0.4952,-0.4959,-0.4966,-0.4971,-0.4978,-0.4984,-0.499,-0.4995,-0.5004,-0.5011,-0.5016,-0.5024,-0.5026,-0.503,-0.5031,-0.5029,-0.5029,-0.5033,-0.5033,-0.5033,-0.5033,-0.5033,-0.5033,0,-0.4924,-0.4931,-0.4939,-0.495,-0.4952,-0.4957,-0.4966,-0.4971,-0.4976,-0.4984,-0.4986,-0.4995,-0.5004,-0.5011,-0.5022,-0.5026,-0.5034,-0.5036,-0.5032,-0.5033,-0.5036,-0.5035,-0.5043,-0.5045,-0.5041,-0.5041,-0.5041,0,-0.4925,-0.493,-0.4941,-0.4945,-0.495,-0.4957,-0.4962,-0.4969,-0.4975,-0.4985,-0.4989,-0.4997,-0.5005,-0.5018,-0.5026,-0.5035,-0.5037,-0.5039,-0.5038,-0.5036,-0.5037,-0.5037,-0.5038,-0.5039,-0.5039,-0.5039,-0.5039,0,-0.4928,-0.4931,-0.4938,-0.4946,-0.4952,-0.4959,-0.4967,-0.497,-0.4979,-0.4984,-0.4993,-0.4999,-0.501,-0.5019,-0.5029,-0.5034,-0.5038,-0.5039,-0.504,-0.5039,-0.5036,-0.5038,-0.5032,-0.5039,-0.5039,-0.5039,-0.5039,-0.5039,-0.4928,-0.4933,-0.4941,-0.4949,-0.4955,-0.4962,-0.4968,-0.4974,-0.4981,-0.4991,-0.4995,-0.5004,-0.5013,-0.5026,-0.5032,-0.5039,-0.504,-0.5042,-0.5042,-0.5043,-0.5043,-0.5035,-0.5041,-0.5041,-0.5041,-0.5041,-0.5041,0,-0.4931,-0.4937,-0.4944,-0.4954,-0.4961,-0.4963,-0.4972,-0.4977,-0.4985,-0.4993,-0.5,-0.501,-0.5019,-0.5028,-0.5037,-0.5042,-0.5044,-0.5044,-0.5044,-0.5045,-0.5041,-0.5039,-0.5042,-0.5042,-0.5042,-0.5042,-0.5042,-0.5042,-0.4934,-0.4942,-0.4946,-0.4957,-0.4963,-0.4972,-0.4977,-0.4983,-0.4989,-0.5001,-0.5008,-0.5014,-0.5022,-0.5032,-0.5041,-0.5043,-0.5046,-0.5046,-0.5049,-0.5045,-0.5045,-0.5045,-0.5043,-0.5047,-0.5047,-0.5052,-0.5053,-0.5053]}]]